Location: Esthal
(49.3786°N, 7.9857°E)
Time: 05:22:49
(UTC+00:00)

Daily predictions for brighter satellites

Satellite Brightness Start Highest point End
(mag) Time Altitude Azimuth Time Altitude Azimuth Time Altitude Azimuth
Cosmos 2227 Rocket 2.5 00:01:58 10° NW 00:07:26 50° WSW 00:09:27 34° SSW
Gbstr 26 Del rocket 4.5 00:02:45 10° WNW 00:08:03 36° SW 00:09:37 32° S
GEOS 3 Rocket 4.2 00:08:05 10° NE 00:13:13 55° NW 00:17:31 15° WSW
Cosmos 1238 Rocket 4.5 00:12:37 10° N 00:17:32 40° ENE 00:20:49 18° SE
IDEFIX/ARIANE 42P 4.1 00:14:19 10° NE 00:18:35 25° E 00:21:27 16° SE
Landsat 4 4.3 00:18:25 29° E 00:18:59 32° ENE 00:21:32 10° N
Cosmos 1441 Rocket 4.0 00:20:22 31° W 00:21:03 34° WNW 00:24:17 10° N
Meteor 2-2 Rocket 4.4 00:20:03 10° NNW 00:25:34 58° W 00:28:00 32° SSW
Cosmos 2221 3.1 00:22:16 10° N 00:26:26 51° ENE 00:28:33 26° SE
Cosmos 1315 Rocket 3.9 00:26:31 10° NW 00:29:47 27° W 00:30:17 26° WSW
SeaSat 1 4.4 00:26:22 10° ESE 00:30:31 28° NE 00:34:41 10° NNW
Okean 1 3.1 00:27:11 10° N 00:30:56 76° E 00:32:02 43° SSE
Cosmos 1125 Rocket 3.7 00:30:24 29° SW 00:33:01 64° WNW 00:38:16 10° NNE
Cosmos 1812 Rocket 3.6 00:29:03 10° N 00:33:27 75° E 00:35:20 33° SSE
Geosat 4.3 00:28:53 10° NNE 00:33:52 63° NW 00:36:37 26° SW
Meteor 1-26 Rocket 4.4 00:29:16 10° NNW 00:34:29 53° W 00:36:45 32° SSW
Nadezhda 1 Rocket 3.9 00:30:55 10° N 00:37:10 90° S 00:40:51 26° S
Cosmos 2150 Rocket 4.2 00:36:24 32° S 00:38:56 67° ESE 00:44:21 10° NNE
CENTAUR R/B 3.9 00:37:30 15° SE 00:40:20 22° ESE 00:45:07 10° ENE
Meteor 2-6 Rocket 4.3 00:34:44 10° NNW 00:40:34 86° W 00:44:03 26° S
H-2A R/B 2.2 00:41:17 43° S 00:42:26 73° WSW 00:46:21 10° NNW
Cosmos 2058 Rocket 4.4 00:39:08 10° NNW 00:42:53 27° W 00:44:04 23° WSW
Okean 1-7 Rocket 3.8 00:42:59 32° SSE 00:44:57 64° E 00:49:26 10° NNE
Cosmos 2322 Rocket 4.1 00:43:02 11° SE 00:46:39 19° E 00:50:29 10° ENE
Cosmos 614 Rocket 4.4 00:42:21 10° NW 00:47:08 44° WSW 00:48:55 32° SSW
Cosmos 1745 Rocket 4.0 00:44:17 27° S 00:47:59 84° E 00:54:23 10° N
Cosmos 1825 Rocket 4.3 00:46:00 25° SSE 00:48:08 44° E 00:52:18 10° NNE
ADEOS II 4.4 00:47:10 10° NE 00:49:58 14° E 00:52:44 10° ESE
ATLAS 5 CENTAUR R/B 2.7 00:46:36 10° NNW 00:50:45 48° NE 00:55:51 10° ESE
BREEZE-M DEB (TANK) 4.5 00:50:22 10° W 00:50:49 12° W 00:50:49 12° W
MOZ.5/SAFIR/RUBIN 5/SL-8 4.5 00:52:02 13° SE 00:55:56 51° ENE 01:00:30 10° N
Cosmos 2263 Rocket 2.7 00:51:17 10° NW 00:56:30 40° WSW 00:58:41 28° SSW
Cosmos 1709 Rocket 4.1 00:57:16 24° S 01:01:19 78° E 01:07:38 10° NNE
CZ-2C R/B 3.2 00:57:00 10° N 01:01:40 55° WNW 01:04:01 27° SW
USA 32 4.2 01:00:07 29° SSW 01:02:44 62° W 01:07:56 10° N
Meteor 1-27 Rocket 4.5 00:57:21 10° N 01:03:11 55° ENE 01:08:58 10° SSE
Cosmos 2082 3.8 00:57:42 10° NW 01:03:14 55° WSW 01:06:25 25° S
Cosmos 2369 3.7 01:01:32 27° SSW 01:04:45 82° WNW 01:10:26 10° NNE
MSX 4.1 01:00:57 10° NNE 01:06:38 60° ESE 01:10:26 21° S
Cosmos 1602 Rocket 3.8 01:07:34 31° SW 01:09:26 57° WNW 01:13:45 10° N
Cosmos 2298 Rocket 4.1 01:07:44 27° SW 01:10:41 74° WNW 01:16:02 10° NNE
Cosmos 1758 Rocket 4.4 01:09:37 25° SW 01:11:34 39° WNW 01:15:46 10° N
FENGYUN 3A 4.4 01:09:29 10° NNE 01:14:43 47° E 01:18:43 17° SSE
SL-16 R/B 2.7 01:13:38 22° S 01:17:08 52° ESE 01:22:38 10° NE
Cosmos 2219 4.0 01:13:27 10° NW 01:18:28 33° WSW 01:20:47 24° SSW
Cosmos 2333 Rocket 3.3 01:15:34 16° SSE 01:19:31 35° ESE 01:24:37 10° NE
USA 290 4.1 01:17:40 10° WNW 01:19:34 17° W 01:19:34 17° W
Meteor 1-10 Rocket 4.3 01:15:14 10° NNW 01:21:00 78° W 01:25:25 18° S
Spot 2 4.3 01:20:18 30° SSW 01:21:49 44° W 01:25:39 10° NNW
USA 276 3.4 01:22:20 21° SE 01:22:20 21° SE 01:24:04 10° E
Cosmos 1842 Rocket 4.3 01:18:26 10° N 01:22:46 52° ENE 01:26:56 10° SSE
BREEZE M DEB (TANK) 2.2 01:21:29 17° W 01:23:15 67° SSW 01:27:48 10° ESE
BREEZE-M DEB 4.1 01:09:09 10° W 01:24:07 88° S 01:28:00 10° E
ATLAS 2AS CENTAUR R/B 3.2 01:19:00 10° NW 01:25:06 37° WSW 01:29:12 19° S
Meteor 2-4 Rocket 4.5 01:21:19 10° N 01:26:33 49° ENE 01:31:42 10° SSE
Cosmos 44 Rocket 3.8 01:25:06 23° S 01:27:39 46° ESE 01:32:11 10° NE
Cosmos 1707 3.6 01:26:24 10° N 01:29:30 38° ENE 01:32:32 10° SE
Cosmos 921 Rocket 3.9 01:25:40 10° NW 01:29:36 33° W 01:31:10 25° SW
Cosmos 1743 2.3 01:28:38 30° S 01:30:09 80° E 01:33:31 10° NNE
Cosmos 1980 Rocket 3.2 01:25:56 15° WSW 01:30:10 38° NW 01:35:25 10° NNE
NPP 3.7 01:28:17 10° NNE 01:33:42 86° ESE 01:37:31 20° SSW
Meteor 1-20 Rocket 4.3 01:33:04 21° SSW 01:37:08 82° WNW 01:42:55 10° N
Cosmos 2151 3.6 01:35:22 24° SW 01:37:26 42° WNW 01:41:23 10° N
Lacrosse 5 rocket 3.1 01:35:56 10° W 01:37:12 15° WSW 01:37:12 15° WSW
KORONAS-FOTON 3.9 01:35:46 10° N 01:39:18 66° ENE 01:42:14 14° SSE
Cosmos 1023 Rocket 4.4 01:34:28 10° NNW 01:39:39 84° WSW 01:44:51 10° SSE
CZ-2C R/B 4.1 01:37:53 18° SW 01:40:19 23° W 01:44:44 10° NW
Cosmos 1140 Rocket 3.4 01:36:33 10° NNW 01:41:44 86° WSW 01:46:55 10° SSE
Resurs 1-4 Rocket 2.6 01:38:33 10° NNE 01:43:48 57° E 01:48:25 13° S
Cosmos 1842 3.3 01:45:26 10° N 01:48:49 61° ENE 01:52:08 10° SSE
Cosmos 1076 Rocket 3.4 01:46:03 21° SSW 01:48:51 78° W 01:53:07 10° N
Cosmos 1844 Rocket 2.7 01:47:02 10° NNW 01:52:37 65° WSW 01:58:08 10° SSE
SJ 16-02 4.4 01:50:12 10° NNE 01:52:49 16° NE 01:55:24 10° E
Cosmos 1238 Rocket 4.4 01:49:34 10° NNW 01:54:04 31° W 01:56:48 18° SW
Cosmos 2227 4.5 01:51:11 10° NW 01:56:39 49° WSW 02:02:07 10° S
Cosmos 407 Rocket 3.7 01:51:23 10° NNW 01:56:39 74° ENE 02:01:56 10° SSE
Cosmos 1844 3.7 01:51:17 10° NNW 01:56:57 67° WSW 02:02:38 10° SSE
CZ-2D R/B 2.3 01:52:10 10° NNE 01:57:24 67° ESE 02:02:07 12° S
IDEFIX/ARIANE 42P 3.0 01:53:19 10° N 01:58:19 51° WNW 02:02:09 17° SW
Cosmos 1151 Rocket 4.3 01:54:44 10° N 01:58:49 40° ENE 02:02:51 10° SE
Cosmos 2184 Rocket 4.3 01:54:15 10° S 02:00:32 73° E 02:06:55 10° NNE
EP 1 4.2 01:57:58 10° NW 02:00:34 75° SW 02:03:31 10° SE
H-2A R/B 2.0 01:57:54 10° NNE 02:02:09 79° WNW 02:05:29 17° SSW
Cosmos 2221 4.2 02:00:19 10° NW 02:03:08 17° W 02:04:55 14° WSW
Cosmos 1953 Rocket 3.9 02:04:16 18° SW 02:07:17 49° WNW 02:11:30 10° N
ATLAS CENTAUR R/B 3.7 02:05:56 10° SE 02:07:19 12° ESE 02:08:43 10° E
SeaSat 1 2.5 02:02:48 10° SSE 02:07:38 59° WSW 02:12:29 10° NW
Cosmos 2360 Rocket 2.5 02:03:04 14° SSW 02:07:53 65° ESE 02:13:27 10° NNE
Cosmos 1346 Rocket 3.8 02:09:59 16° SW 02:12:14 30° WNW 02:15:33 10° N
Cosmos 2278 3.8 02:08:06 16° SW 02:12:43 68° WNW 02:18:23 10° NNE
Cosmos 2154 Rocket 4.2 02:06:41 10° S 02:12:56 78° E 02:19:16 10° NNE
ARIANE 6 FM1 Upper Stage 4.2 02:10:40 10° S 02:13:55 25° ESE 02:17:15 10° ENE
Cosmos 1733 3.1 02:14:22 19° SW 02:16:12 43° WNW 02:19:04 10° N
Molniya-1 4.4 02:19:20 14° WSW 02:22:28 70° NW 02:32:00 10° NE
Cosmos 2219 Rocket 2.9 02:17:14 10° S 02:22:36 50° ESE 02:27:59 10° NE
H-2A R/B 3.5 02:20:43 10° NNE 02:25:07 32° E 02:29:28 10° SSE
Cosmos 2074 Rocket 4.0 02:19:36 10° SSW 02:25:46 75° W 02:32:02 10° N
Cosmos 405 Rocket 4.1 02:26:05 10° SSE 02:28:56 29° E 02:31:49 10° NNE
CENTAUR R/B 2.6 02:24:36 13° SW 02:29:49 83° NW 02:37:05 10° NE
Cosmos 2322 Rocket 2.2 02:24:50 12° SSW 02:30:01 79° WNW 02:35:41 10° NNE
ADEOS II 2.1 02:25:00 10° NNE 02:30:16 90° SE 02:35:31 10° SSW
ALOS 2.2 02:28:12 10° NNE 02:32:49 84° WNW 02:37:23 10° SSW
ATLAS 5 CENTAUR R/B 2.5 02:29:22 10° WNW 02:33:34 34° WSW 02:38:36 10° S
Meteor 2-13 Rocket 4.5 02:28:37 10° NNW 02:34:46 83° W 02:40:55 10° S
Meteor 1-28 Rocket 4.0 02:32:44 10° SSE 02:35:59 48° ENE 02:39:14 10° N
Meteor 1-18 Rocket 4.2 02:33:16 10° NNW 02:38:47 70° W 02:44:18 10° S
Cosmos 2251 Rocket 3.5 02:34:01 10° NNW 02:39:20 81° WSW 02:44:35 10° SSE
NOSS 3-2 (A) 3.4 02:37:43 10° SSW 02:42:42 65° SE 02:48:44 10° NE
DMSP B5D2-2 4.1 02:37:52 10° S 02:43:05 70° WSW 02:48:19 10° NNW
Envisat 3.0 02:38:56 10° NNE 02:44:01 81° WNW 02:49:05 10° SSW
Cosmos 1420 Rocket 4.3 02:40:03 10° SSW 02:45:16 70° ESE 02:50:29 10° NNE
SL-23 DEB 3.8 02:43:37 10° W 02:46:45 66° N 02:50:42 10° ENE
SAR-Lupe-3 4.4 02:43:57 10° S 02:46:48 45° W 02:49:40 10° NNW
Cosmos 2278 Rocket 4.1 02:46:27 10° NNW 02:51:42 36° NE 02:56:55 10° ESE
Cosmos 1190 Rocket 4.0 02:47:49 10° NNW 02:53:01 79° WSW 02:58:10 10° SSE
NOAA 11 4.4 02:48:41 10° N 02:54:03 60° WNW 02:59:21 10° SSW
Cosmos 1437 Rocket 3.7 02:50:30 10° N 02:54:06 47° ENE 02:57:38 10° SSE
USA 276 1.5 02:52:23 10° WSW 02:55:05 82° S 02:57:33 10° E
SL-16 R/B 2.6 02:49:26 10° SSE 02:55:42 76° WSW 03:02:01 10° NNW
Cosmos 2056 Rocket 4.0 02:52:42 10° S 02:57:47 59° ESE 03:02:49 10° NNE
SL-16 R/B 3.3 02:56:22 10° WSW 03:01:28 34° NW 03:06:36 10° NNE
